Regional Weather Roundup
Issued by NWS Newport/Morehead, NC

Current Version | Previous Version | Graphics & Text | Print | Product List | Glossary Off
Versions: 1 2 3 4 5 6 7 8 9 10 11 12 13 14 15 16 17 18 19 20 21 22 23 24 25 26 27 28 29 30 31 32 33 34 35 36 37 38 39 40 41 42 43 44 45 46 47 48 49 50

000
ASUS42 KMHX 250425
RWRMHX
WEATHER ROUNDUP FOR EASTERN NORTH CAROLINA
NATIONAL WEATHER SERVICE NEWPORT/MOREHEAD CITY NC
1200 AM EDT TUE APR 25 2017

NOTE: "FAIR" INDICATES FEW OR NO CLOUDS BELOW 12,000 FEET
WITH NO SIGNIFICANT WEATHER AND/OR OBSTRUCTIONS TO VISIBILITY

NCZ015>017-031-032-045>047-102-103-250500-
NORTH COAST

CITY           SKY/WX    TMP DP  RH WIND       PRES   REMARKS
EDENTON        LGT RAIN  68  65  89 E14G22    29.73F
ELIZABETH CITY CLOUDY    68  62  81 E17G28    29.76F
KITTY HAWK     CLOUDY    63  62  94 E16G24    29.75F FOG
MANTEO         CLOUDY    64  61  88 SE13G20   29.76F

$$

NCZ045>047-081-094-103-104-250500-
CENTRAL COAST

CITY           SKY/WX    TMP DP  RH WIND       PRES   REMARKS
FRISCO         LGT RAIN  70  62  76 SE29G38   29.70S

$$

NCZ095-097-098-100-101-250500-
SOUTHERN COAST

CITY           SKY/WX    TMP DP  RH WIND       PRES   REMARKS
BEAUFORT       CLOUDY    71  66  84 E18G28    29.65F
CEDAR ISLAND   NOT AVBL
JACKSONVILLE   RAIN      66  66 100 SE8       29.64S FOG
PINEY ISLAND   CLOUDY   N/A N/A N/A E22G36    29.66F
WILMINGTON     CLOUDY    66  65  96 E6        29.62F


$$

NCZ011>013-027>030-043-044-078>080-089-090>093-098-250500-
COASTAL PLAIN

CITY           SKY/WX    TMP DP  RH WIND       PRES   REMARKS
AHOSKIE        HVY RAIN  61  60  96 NE6       29.74F
CLINTON        LGT RAIN  65  65 100 CALM      29.62S
ELIZABETHTOWN  LGT RAIN  60  60 100 CALM      29.63R
GOLDSBORO      LGT RAIN  66  66 100 E13       29.62S
GREENVILLE     DRIZZLE   66  64  94 E12G17    29.70S
HAVELOCK       CLOUDY    70  64  83 E13       29.66F
KENANSVILLE    RAIN      66  66 100 E5        29.62S FOG
KINSTON        HVY RAIN  65  65  97 SE7       29.65F
NEW BERN       LGT RAIN  69  66  90 E15G23    29.66F FOG
RICHLANDS      RAIN      65  64  97 E7        29.64S FOG
ROCKY MOUNT    HVY RAIN  64  64 100 NE10G21   29.67S FOG
WASHINGTON     DRIZZLE   66  65  96 E12       29.68S
WHITEVILLE     FOG       60  59  97 CALM      29.62S VSB 3/4

$$

AMZ130-135-150-152-154-156-158-170-250-252-270-ANZ085-086-088-633-658-670-250500-
MARINE OBSERVATIONS

STATION/POSITION TIME  TEMP    WIND        PRES    WAVE   SWELL
                       AIR SEA DIR/SP/G            HT/PER HT/PER
                 (UTC) (F)     (DEG/KT/KT) (MB)    (FT/S) (FT/S)
CHESAPEAKE LIGHT NOT AVBL
64 E VA BEACH    0350   62 54   90/ 16/ 23 1009.9   10/ 8   7/ 8
DUCK             0400   61 61   90/ 27/ 30 1007.6
2 E DUCK         0400      59                N/A     7/ 8   2/11
OREGON INLET     0400   64 62   90/ 10/ 13 1006.9
13E OREGON INLT  0348      57                N/A    11/ 8  11/ 8
HATTERAS CG      0400   70 68  110/ 20/ 31 1005.2
DIAMOND BUOY     0350   73 78  110/ 31/ 39 1004.5   14/ 9   3/16
CAPE LOOKOUT     0400   69     110/ 28/ 32 1003.4
BEAUFORT LAB     0400   70 65  120/ 23/ 29 1002.9
30 SE NEW RVR IN 0408   64     190/  4/  8 1004.2
30 SE NEW RVR IN 0413      71                N/A    14/10   7/11
27 SE WRIGHTSVLE 0408   67 72  140/  8/ 14 1002.6
5 SE WRIGHTSVLE  0408   67 69  140/ 12/ 17 1003.0
225 S CAPE HAT   0350   73 75  210/ 17/ 21 1003.9   11/11   8/11
41 SE CHARLESTON 0410   70 72  290/ 14/ 19 1003.0

$$




USA.gov is the U.S. government's official web portal to all federal, state and local government web resources and services.